Lid_Strength_Index
0 1 5 8 13 14 14 12 9 10 9 6 6 7 7 8 9 12 2 1 0 0 -0 -0 -1 -1 -1 -1 -1 -1 -1 -1 -1 -1 -1 -1 -1 -1 -1 -2 -1 -1 -1 -1 -1 -1 -1 -1 -1
4 4 7 11 14 16 15 10 11 9 7 5 7 6 7 9 5 4 3 1 0 0 -0 -0 -1 -1 -1 -1 -1 -1 -1 -1 -1 -1 -1 -1 -1 -1 -1 -2 -1 -1 -1 -1 -1 -1 -1 -1 -1
5 7 9 13 16 16 14 10 9 7 6 6 7 6 6 7 4 4 1 0 0 0 -0 -0 -1 -1 -1 -1 -1 -1 -1 -1 -1 -1 -1 -1 -1 -1 -1 -1 -2 -1 -1 -1 -1 -1 -1 -1 -1
8 10 11 14 15 13 11 9 7 7 6 5 6 7 5 3 4 2 1 0 0 0 0 -1 -1 -1 -1 -1 -1 -1 -1 -1 -1 -1 -1 -1 -1 -1 -1 -2 -2 -1 -1 -1 -1 -1 -1 -2 -2
10 12 14 16 15 12 9 7 7 7 6 6 6 8 7 3 2 1 1 0 1 1 -0 -0 -1 -1 -1 -1 -1 -1 -1 -1 -1 -1 -1 -1 -1 -1 -1 -1 -2 -1 -1 -1 -1 -1 -2 -2 -2
12 14 17 17 14 11 9 6 7 7 6 6 6 7 7 3 2 2 1 1 0 1 -0 -0 -1 -1 -1 -1 -1 -1 -1 -1 -1 -1 -1 -1 -1 -1 -1 -1 -2 -2 -2 -2 -2 -2 -2 -2 -2
12 15 16 16 14 12 10 7 7 7 6 7 5 9 6 5 3 2 2 0 0 0 0 -0 -0 -0 -1 -1 -1 -1 -1 -1 -1 -1 -1 -1 -1 -1 -1 -1 -1 -1 -1 -2 -2 -2 -2 -1 -1
11 14 16 15 14 13 8 7 6 6 6 4 4 9 9 4 3 1 1 1 1 1 0 0 0 -0 0 -0 -1 -1 -1 -1 -1 -1 -1 -1 -1 -1 -2 -1 -1 -1 -1 -1 -1 -1 -2 -1 -1
11 15 17 15 13 12 10 11 9 4 6 5 5 5 4 3 2 3 4 3 2 1 1 0 0 0 0 0 -0 -1 -1 -1 -1 -1 -1 -1 0 -0 -1 -1 -1 -1 -2 -2 -1 -1 -1 -1 -1
12 15 15 13 11 11 11 9 10 6 6 6 6 4 3 3 3 4 5 4 3 2 1 1 0 0 0 -0 0 0 -0 0 0 -0 0 1 2 2 1 -0 -1 -2 -2 -2 -1 -2 -2 -1 -0
11 13 12 11 9 9 10 9 8 8 8 6 6 6 4 4 4 5 5 3 3 2 1 1 0 0 0 0 0 0 0 1 1 1 1 5 5 5 3 4 3 1 3 1 2 2 2 3 2
12 11 11 11 10 10 11 9 10 9 6 4 4 4 4 4 4 5 5 4 3 2 1 1 1 0 1 0 1 1 1 1 3 5 5 5 5 5 5 4 4 4 3 4 4 3 3 2 2
12 10 10 10 10 12 10 10 9 9 8 4 4 4 5 4 4 3 4 3 3 3 2 2 1 0 0 1 1 1 1 3 6 4 4 4 4 5 4 3 3 3 2 2 2 2 2 1 1
10 10 10 10 10 11 11 10 10 9 7 6 5 5 5 4 4 4 3 3 3 3 2 1 1 0 0 1 2 2 5 7 5 2 2 3 3 3 3 3 3 3 3 3 2 2 2 2 2
10 11 10 10 10 11 10 11 12 9 5 6 5 5 5 4 4 4 3 3 2 2 1 1 2 2 2 5 5 6 7 5 4 3 2 2 3 3 3 3 3 4 3 2 2 2 2 2 2
12 13 14 12 11 10 9 13 7 8 6 7 6 5 5 4 4 3 3 2 2 2 2 2 2 5 7 8 8 7 7 5 3 3 2 2 3 3 4 3 3 3 3 3 3 3 3 3 3
14 16 15 12 10 10 10 13 9 7 7 7 6 6 5 8 5 4 3 2 3 4 4 5 7 7 8 7 7 7 6 3 3 3 3 2 3 3 4 4 4 3 4 4 4 4 4 4 3
15 16 15 14 11 11 11 12 10 9 6 7 6 7 8 7 5 3 3 4 5 6 5 7 8 8 7 5 4 4 3 3 4 3 3 3 3 3 4 4 4 4 4 4 4 4 4 4 3
13 14 14 13 10 11 12 12 10 9 7 7 6 7 9 7 4 3 4 5 6 7 7 8 9 6 5 4 3 5 4 3 4 3 3 3 3 3 4 4 4 4 4 4 4 4 4 4 3
13 14 14 12 11 11 12 12 10 10 9 6 6 6 7 9 5 5 5 6 7 8 8 8 7 5 3 3 5 4 4 3 4 3 3 3 3 3 4 4 4 4 5 5 5 4 5 5 4
13 14 14 13 11 11 12 14 12 9 9 8 7 6 6 8 6 6 6 6 7 8 8 8 6 4 4 4 3 3 3 3 4 4 4 3 3 3 4 4 4 4 4 5 5 4 5 6 5
14 11 11 12 13 15 12 17 14 12 10 9 7 8 7 8 5 5 6 6 7 7 7 7 6 3 2 2 2 2 3 4 4 4 3 3 3 3 3 3 4 4 4 5 5 4 5 5 6
12 9 11 11 13 15 15 17 15 12 12 10 8 7 7 9 5 5 6 6 6 7 7 7 4 2 1 2 2 2 4 4 4 3 3 4 4 3 3 3 4 4 4 4 4 5 5 5 5
8 10 12 14 15 18 13 15 17 14 12 11 9 7 7 7 4 4 5 5 6 7 6 5 4 2 2 1 2 2 2 3 4 4 4 4 4 3 3 3 4 4 4 4 4 4 5 5 5
11 13 17 18 18 17 15 16 15 11 11 10 10 9 7 6 6 4 5 5 6 6 5 4 4 3 2 2 2 2 2 2 3 4 4 4 4 4 4 4 4 4 4 4 4 5 5 5 5
12 13 16 19 20 17 14 16 13 10 9 9 9 9 9 8 6 5 4 4 5 5 5 4 4 3 2 2 2 3 3 3 3 3 3 4 4 4 4 4 4 4 4 4 4 5 5 5 5
12 15 12 15 16 18 16 13 11 10 9 8 9 8 9 9 7 6 5 4 4 4 4 3 3 2 2 2 2 3 3 3 4 4 4 4 3 3 3 4 4 4 4 4 5 5 5 5 5
11 10 15 16 19 20 17 15 15 11 10 9 9 9 9 9 9 7 5 3 3 3 3 3 2 2 2 2 2 2 3 3 3 3 3 3 3 3 3 4 4 4 4 4 5 5 5 5 4
12 16 15 14 16 19 19 17 11 11 10 10 8 8 10 9 9 10 6 4 3 3 3 2 2 2 2 2 2 2 3 3 3 3 3 3 3 3 3 3 3 4 4 4 5 5 4 4 4
12 15 15 18 18 16 17 17 9 10 10 9 8 7 7 7 8 8 7 5 4 3 3 3 2 2 2 2 2 2 3 3 3 3 3 3 3 3 3 3 3 3 4 4 4 4 4 4 4